STARLINK-34662

Last updated on Sat Aug 16 2025 00:02:05 GMT+0000 (Coordinated Universal Time)

1 64799U 25150K 25227.41844176 .00009908 00000+0 22950-3 0 9997 2 64799 70.0027 316.0059 0002290 245.1697 114.9246 15.42693115 5081
UTC large
Height (km)
Speed (km/s)
/
Latitude / Longitude
Inclination (degrees)
Orbital Period (minutes)
Azimuth
Elevation
Range (km)
Doppler Factor

Next 0 passes for location: London (51.5072 / 0.1276)

Sorry there are no passes over London.